Location: Bouchavesnes-Bergen
(49.9859°N, 2.9203°E)
Time: 05:02:49
(UTC+00:00)

ARIANE 5 R/B - Pass Details

Date: 09 March 2021
Orbit: 749 x 794 km, 98.7° (Epoch: 11 April)

Event Time Altitude Azimuth Distance (km) Brightness Sun altitude
Rises 04:56:32 0° 2° (N) 3,224 5.9 -13.4°
Reaches altitude 10° 04:59:51 10° 339° (NNW) 2,301 4.8 -12.8°
Maximum altitude 05:02:27 14° 308° (NW) 2,019 4.3 -12.4°
Enters shadow 05:03:45 13° 291° (WNW) 2,094 4.2 -12.2°
